| time (UTC) | temp C | wind direction | speed KPH | gust KPH | rain 1hr cm | rain 24hr cm | rain mn cm | humidity % | barometer mb |
| 20260506015003 | 10 | 57 | 22.5 | 24.1 | 0.00 | 0.00 | 0.00 | 76 | 1055.2 |
| 20260506014002 | 10 | 39 | 22.5 | 27.4 | 0.00 | 0.00 | 0.00 | 75 | 1054.9 |
| 20260506012503 | 10 | 32 | 14.5 | 22.5 | 0.00 | 0.00 | 0.00 | 75 | 1054.9 |
| 20260506011003 | 10 | 25 | 20.9 | 22.5 | 0.00 | 0.00 | 0.00 | 75 | 1054.9 |
| 20260506005502 | 10 | 12 | 20.9 | 25.7 | 0.00 | 0.00 | 0.00 | 75 | 1054.2 |
| 20260506002503 | 10 | 12 | 14.5 | 24.1 | 0.00 | 0.00 | 0.00 | 74 | 1053.8 |
| 20260506001002 | 10 | 18 | 16.1 | 24.1 | 0.00 | 0.00 | 0.00 | 72 | 1053.8 |
| 20260505234004 | 11 | 46 | 25.7 | 35.4 | 0.00 | 0.00 | 0.00 | 70 | 1053.5 |
| 20260505232503 | 11 | 43 | 16.1 | 29.0 | 0.00 | 0.00 | 0.00 | 70 | 1053.8 |
| 20260505231003 | 11 | 22 | 20.9 | 25.7 | 0.00 | 0.00 | 0.00 | 70 | 1053.5 |
| 20260505225503 | 11 | 9 | 22.5 | 37.0 | 0.00 | 0.00 | 0.00 | 71 | 1053.2 |
| 20260505224502 | 11 | 343 | 16.1 | 29.0 | 0.00 | 0.00 | 0.00 | 71 | 1053.5 |
| 20260505223003 | 11 | 338 | 16.1 | 22.5 | 0.00 | 0.00 | 0.00 | 70 | 1053.5 |
| 20260505221502 | 11 | 23 | 16.1 | 35.4 | 0.00 | 0.00 | 0.00 | 70 | 1053.2 |
| 20260505220003 | 12 | 23 | 14.5 | 29.0 | 0.00 | 0.00 | 0.00 | 69 | 1053.2 |
| 20260505214503 | 12 | 9 | 20.9 | 27.4 | 0.00 | 0.00 | 0.00 | 69 | 1053.2 |
| 20260505213003 | 12 | 46 | 24.1 | 25.7 | 0.00 | 0.00 | 0.00 | 70 | 1053.2 |
| 20260505211503 | 12 | 352 | 35.4 | 35.4 | 0.00 | 0.00 | 0.00 | 70 | 1052.5 |
| 20260505204503 | 12 | 14 | 22.5 | 32.2 | 0.00 | 0.00 | 0.00 | 70 | 1052.5 |
| 20260505201503 | 12 | 58 | 16.1 | 35.4 | 0.00 | 0.00 | 0.00 | 73 | 1052.2 |
| 20260505200004 | 12 | 1 | 35.4 | 35.4 | 0.00 | 0.00 | 0.00 | 75 | 1052.2 |
| 20260505194503 | 12 | 10 | 29.0 | 37.0 | 0.00 | 0.00 | 0.00 | 77 | 1052.2 |
| 20260505193003 | 12 | 11 | 27.4 | 33.8 | 0.00 | 0.00 | 0.00 | 76 | 1052.2 |
| 20260505191502 | 12 | 359 | 27.4 | 35.4 | 0.00 | 0.00 | 0.00 | 76 | 1051.8 |
| 20260505190004 | 13 | 16 | 17.7 | 33.8 | 0.00 | 0.00 | 0.00 | 76 | 1051.8 |
| 20260505184503 | 13 | 11 | 22.5 | 35.4 | 0.00 | 0.00 | 0.00 | 75 | 1051.8 |
| 20260505183003 | 13 | 21 | 24.1 | 35.4 | 0.00 | 0.00 | 0.00 | 76 | 1051.5 |
| 20260505181503 | 13 | 20 | 24.1 | 32.2 | 0.00 | 0.00 | 0.00 | 77 | 1051.1 |
| 20260505180502 | 13 | 7 | 19.3 | 33.8 | 0.00 | 0.00 | 0.00 | 77 | 1051.1 |
| 20260505175002 | 13 | 341 | 29.0 | 33.8 | 0.00 | 0.00 | 0.00 | 78 | 1050.8 |
| 20260505173503 | 13 | 340 | 24.1 | 33.8 | 0.00 | 0.00 | 0.00 | 77 | 1050.8 |
| 20260505172003 | 13 | 21 | 24.1 | 30.6 | 0.00 | 0.00 | 0.00 | 77 | 1050.5 |
| 20260505170503 | 13 | 11 | 20.9 | 35.4 | 0.00 | 0.00 | 0.00 | 79 | 1050.1 |
| 20260505165003 | 14 | 25 | 24.1 | 37.0 | 0.00 | 0.00 | 0.00 | 79 | 1050.1 |
| 20260505163502 | 14 | 7 | 24.1 | 32.2 | 0.00 | 0.00 | 0.00 | 79 | 1049.4 |
| 20260505162003 | 15 | 0 | 22.5 | 33.8 | 0.00 | 0.00 | 0.00 | 78 | 1048.8 |
| 20260505161002 | 16 | 43 | 25.7 | 37.0 | 0.00 | 0.00 | 0.00 | 79 | 1048.1 |
| 20260505152503 | 20 | 14 | 30.6 | 30.6 | 0.00 | 0.00 | 0.00 | 79 | 1046.7 |
| 20260505151003 | 20 | 26 | 17.7 | 25.7 | 0.00 | 0.00 | 0.00 | 80 | 1046.4 |
| 20260505122503 | 21 | 336 | 3.2 | 6.4 | 0.00 | 0.00 | 0.00 | 71 | 1044.4 |
| 20260505121003 | 21 | 23 | 6.4 | 11.3 | 0.00 | 0.00 | 0.00 | 72 | 1044.0 |
| 20260505115503 | 21 | 227 | 9.7 | 12.9 | 0.00 | 0.00 | 0.00 | 71 | 1043.7 |
| 20260505114003 | 21 | 185 | 6.4 | 16.1 | 0.00 | 0.00 | 0.00 | 70 | 1043.0 |
| 20260505112503 | 21 | 202 | 11.3 | 16.1 | 0.00 | 0.00 | 0.00 | 70 | 1042.7 |
| 20260505111003 | 22 | 211 | 11.3 | 20.9 | 0.00 | 0.00 | 0.00 | 70 | 1042.7 |
| 20260505101003 | 22 | 199 | 19.3 | 27.4 | 0.00 | 0.00 | 0.00 | 69 | 1042.3 |
| 20260505095503 | 22 | 203 | 12.9 | 27.4 | 0.00 | 0.00 | 0.00 | 69 | 1042.3 |
| 20260505094003 | 22 | 197 | 25.7 | 29.0 | 0.00 | 0.00 | 0.00 | 68 | 1042.3 |
| 20260505091003 | 22 | 184 | 17.7 | 30.6 | 0.00 | 0.00 | 0.00 | 68 | 1042.3 |
| 20260505085503 | 22 | 205 | 24.1 | 33.8 | 0.00 | 0.00 | 0.00 | 68 | 1042.7 |
| 20260505084003 | 22 | 184 | 22.5 | 32.2 | 0.00 | 0.00 | 0.00 | 68 | 1042.7 |
| 20260505082503 | 22 | 190 | 20.9 | 32.2 | 0.00 | 0.00 | 0.00 | 68 | 1042.7 |
| 20260505081003 | 22 | 206 | 17.7 | 29.0 | 0.00 | 0.00 | 0.00 | 69 | 1042.7 |
| 20260505075503 | 22 | 197 | 16.1 | 27.4 | 0.00 | 0.00 | 0.00 | 69 | 1043.0 |
| 20260505074003 | 22 | 183 | 22.5 | 32.2 | 0.00 | 0.00 | 0.00 | 69 | 1043.0 |
| 20260505072503 | 22 | 211 | 24.1 | 37.0 | 0.00 | 0.00 | 0.00 | 69 | 1043.3 |
| 20260505071003 | 22 | 179 | 29.0 | 30.6 | 0.00 | 0.00 | 0.00 | 69 | 1043.3 |
| 20260505065503 | 22 | 205 | 27.4 | 37.0 | 0.00 | 0.00 | 0.00 | 69 | 1043.7 |
| 20260505064502 | 22 | 197 | 17.7 | 29.0 | 0.00 | 0.00 | 0.00 | 69 | 1043.7 |
| 20260505063003 | 22 | 203 | 22.5 | 40.2 | 0.00 | 0.00 | 0.00 | 68 | 1044.0 |
| 20260505061503 | 22 | 194 | 27.4 | 33.8 | 0.00 | 0.00 | 0.00 | 68 | 1044.0 |
| 20260505060003 | 22 | 183 | 22.5 | 37.0 | 0.00 | 0.00 | 0.00 | 67 | 1044.0 |
| 20260505054503 | 22 | 194 | 30.6 | 30.6 | 0.00 | 0.00 | 0.00 | 67 | 1044.4 |
| 20260505053003 | 22 | 177 | 29.0 | 37.0 | 0.00 | 0.00 | 0.00 | 67 | 1044.4 |
| 20260505051504 | 23 | 196 | 24.1 | 30.6 | 0.00 | 0.00 | 0.00 | 66 | 1044.4 |
| 20260505041003 | 23 | 180 | 25.7 | 32.2 | 0.00 | 0.00 | 0.00 | 65 | 1045.0 |
| 20260505035503 | 23 | 188 | 14.5 | 30.6 | 0.00 | 0.00 | 0.00 | 64 | 1045.0 |
| 20260505032502 | 23 | 204 | 20.9 | 43.5 | 0.00 | 0.00 | 0.00 | 63 | 1044.7 |
| 20260505031003 | 24 | 192 | 22.5 | 32.2 | 0.00 | 0.00 | 0.00 | 63 | 1044.7 |
| 20260505025503 | 24 | 162 | 24.1 | 38.6 | 0.00 | 0.00 | 0.00 | 62 | 1044.4 |
| 20260505024503 | 24 | 167 | 24.1 | 35.4 | 0.00 | 0.00 | 0.00 | 61 | 1044.7 |
| 20260505023003 | 24 | 179 | 22.5 | 27.4 | 0.00 | 0.00 | 0.00 | 61 | 1044.7 |
| 20260505021503 | 25 | 179 | 16.1 | 29.0 | 0.00 | 0.00 | 0.00 | 60 | 1044.4 |